{"data":{"norad_id":66959,"intl_designator":"2025-288A","name":"STARLINK-35887","alt_names":[],"object_type":"PAYLOAD","status":"ACTIVE","operator":null,"country":"US","launch_date":"2025-12-08","launch_site_code":"AFETR","launch_vehicle":null,"mission":null,"orbit_class":"UNKNOWN","rcs_meters":null,"size_class":null,"mass_kg":null,"dimensions":null,"purposes":["comms"],"wikipedia_slug":null,"has_3d_model":false,"image_url":null,"decayed_at":null,"tle_current":{"epoch":"2026-05-25T03:48:39.970944Z","epoch_age_seconds":64537,"freshness":"FRESH","line1":"1 66959U 25288A   26145.15879596  .00012162  00000+0  45074-3 0  9992","line2":"2 66959  42.9991 311.4929 0000650 296.1163  63.9622 15.27580108 26989","mean_motion":15.27580108,"eccentricity":6.5e-5,"inclination_deg":42.9991,"raan_deg":311.4929,"arg_perigee_deg":296.1163,"mean_anomaly_deg":63.9622,"bstar":0.00045074,"rev_number":2698,"period_min":94.266742048987,"perigee_km":482.6027955736,"apogee_km":483.49474972404,"semimajor_km":6861.1857726488,"source":"CELESTRAK","updated_at":"2026-05-25T13:38:21.392092Z"}}}